This is the latest recevied weather packets stored in our database for station/object W6ORV. If no packets are shown the sender has not sent any weather packets the latest 10 day(s).
| Time | Temp. | Humidity | Pressure | Rain* | Wind** | Luminosity | Snow |
|---|---|---|---|---|---|---|---|
| 1777744358 | 15° C | 83% | 4299.2 hPa | 0 mm | - | 813 W/m² | - |
| 1777744055 | 15° C | 86% | 4299.5 hPa | 0 mm | - | 799 W/m² | - |
| 1777743753 | 14.44° C | 85% | 4299.2 hPa | 0 mm | - | 713 W/m² | - |
| 1777743450 | 13.89° C | 88% | 4299.3 hPa | 0 mm | - | 718 W/m² | - |
| 1777743147 | 13.33° C | 92% | 4299.3 hPa | 0 mm | - | 765 W/m² | - |
| 1777742845 | 12.78° C | 95% | 4299.1 hPa | 0 mm | - | 439 W/m² | - |
| 1777742541 | 12.78° C | 95% | 4299.3 hPa | 0 mm | - | 446 W/m² | - |
| 1777742237 | 12.22° C | 98% | 4299.1 hPa | 0 mm | - | 424 W/m² | - |
| 1777741934 | 12.22° C | 98% | 4299.4 hPa | 0 mm | - | 327 W/m² | - |
| 1777741631 | 11.67° C | 99% | 4299.5 hPa | 0 mm | - | 274 W/m² | - |
| 1777741328 | 11.11° C | 99% | 4299.3 hPa | 0 mm | - | 241 W/m² | - |
| 1777741023 | 11.67° C | 99% | 4299.3 hPa | 0 mm | - | 224 W/m² | - |
| 1777740721 | 11.67° C | 99% | 4299.1 hPa | 0 mm | - | 207 W/m² | - |
| 1777740417 | 11.11° C | 99% | 4299.4 hPa | 0 mm | - | 260 W/m² | - |
| 1777740114 | 10.56° C | 99% | 4299.1 hPa | 0 mm | - | 268 W/m² | - |
| 1777739810 | 10.56° C | 99% | 4299.2 hPa | 0 mm | - | 209 W/m² | - |
| 1777739507 | 10.56° C | 99% | 4299.1 hPa | 0 mm | - | 159 W/m² | - |
| 1777739204 | 10.56° C | 99% | 4299.3 hPa | 0 mm | - | 191 W/m² | - |
| 1777738901 | 10.56° C | 99% | 4299.2 hPa | 0 mm | - | 185 W/m² | - |
| 1777738598 | 10.56° C | 99% | 4299.5 hPa | 0 mm | - | 164 W/m² | - |
| 1777738295 | 10° C | 99% | 4299.4 hPa | 0 mm | - | 155 W/m² | - |
| 1777737993 | 10° C | 99% | 4299.3 hPa | 0 mm | - | 125 W/m² | - |
| 1777737691 | 10° C | 99% | 4299.2 hPa | 0 mm | - | 116 W/m² | - |
| 1777737389 | 10° C | 99% | 4299.2 hPa | 0 mm | - | 127 W/m² | - |
| 1777737086 | 10° C | 99% | 4299.3 hPa | 0 mm | - | 116 W/m² | - |
* Rain latest hour (hover to see other rain measurements)
** Current wind speed in m/s (hover to see current wind gust speed)